{"data":{"norad_id":68609,"intl_designator":"2026-073H","name":"STARLINK-37250","alt_names":[],"object_type":"PAYLOAD","status":"ACTIVE","operator":null,"country":"US","launch_date":"2026-04-07","launch_site_code":"AFWTR","launch_vehicle":null,"mission":null,"orbit_class":"UNKNOWN","rcs_meters":null,"size_class":null,"mass_kg":null,"dimensions":null,"purposes":["comms"],"wikipedia_slug":null,"has_3d_model":false,"image_url":null,"decayed_at":null,"tle_current":{"epoch":"2026-05-25T04:00:03.998880Z","epoch_age_seconds":56717,"freshness":"FRESH","line1":"1 68609U 26073H   26145.16671295 -.02236639  00000+0 -44004-1 0  9997","line2":"2 68609  97.2850 344.6661 0002325 106.8059 214.1424 15.50829461  6019","mean_motion":15.50829461,"eccentricity":0.0002325,"inclination_deg":97.285,"raan_deg":344.6661,"arg_perigee_deg":106.8059,"mean_anomaly_deg":214.1424,"bstar":-0.044004,"rev_number":601,"period_min":92.853536524349,"perigee_km":412.72378960966,"apogee_km":415.8822742245,"semimajor_km":6792.4400319171,"source":"CELESTRAK","updated_at":"2026-05-25T13:38:21.967495Z"}}}